Weather History for Fort Myers Airport, FL

Change the Weather History Date:

Sunday, January 20, 2013

  Actual Average Record
Temperature  
Mean Temperature 72 °F -  
Max Temperature 79 °F 74 °F 87 °F (1990)
Min Temperature 64 °F 54 °F 26 °F (2002)
Cooling Degree Days 6    
Growing Degree Days 22 (Base 50)    
Moisture  
Dew Point 63 °F    
Average Humidity 82    
Maximum Humidity 96    
Minimum Humidity 54    
Precipitation  
Precipitation 0.00 in - - ()
Sea Level Pressure  
Sea Level Pressure 30.10 in    
Wind  
Wind Speed 5 mph (NE)    
Max Wind Speed 9 mph    
Max Gust Speed -    
Visibility 9 miles    
Events      
Averages and records for this station are not official NWS values.
T = Trace of Precipitation, MM = Missing Value Source: NWS Daily Summary

Daily Weather History Graph

Daily Weather History Graph

Search for Another Location

Airport:

Trip Planner

Search our weather history database for the weather conditions in past years. The results will help you decide how hot, cold, wet, or windy it might be!

Date:

Astronomy

Jan. 20, 2013 Rise Set
Actual Time 7:16 AM EST 6:00 PM EST
Civil Twilight 6:51 AM EST 6:25 PM EST
Nautical Twilight 6:23 AM EST 6:53 PM EST
Astronomical Twilight 5:55 AM EST 7:21 PM EST
Moon 12:59 PM EST (1/20) 1:50 AM EST (1/20)
Length of Visible Light 11h 33m
Length of Day
10h 44m
Waxing Gibbous, 66% of the Moon is Illuminated
Jan 20
Waxing Gibbous
Jan 26
Full
Feb 3
Last Quarter
Feb 10
New
Feb 17
First Quarter

Hourly Weather History & Observations

Time (EST) Temp. Dew Point Humidity Pressure Visibility Wind Dir Wind Speed Gust Speed Precip Events Conditions
12:53 AM 64.9 °F 62.1 °F 90% 30.12 in 10.0 mi NE 4.6 mph - N/A   Mostly Cloudy
1:09 AM 64.4 °F 62.6 °F 94% 30.12 in 10.0 mi ENE 3.5 mph - N/A   Mostly Cloudy
1:53 AM 64.9 °F 62.1 °F 90% 30.11 in 10.0 mi NE 6.9 mph - N/A   Overcast
2:53 AM 64.0 °F 62.1 °F 93% 30.10 in 10.0 mi ENE 4.6 mph - N/A   Overcast
3:53 AM 64.0 °F 62.1 °F 93% 30.10 in 10.0 mi NE 4.6 mph - N/A   Overcast
4:43 AM 64.4 °F 62.6 °F 94% 30.11 in 9.0 mi NE 5.8 mph - N/A   Overcast
4:53 AM 64.0 °F 63.0 °F 96% 30.10 in 7.0 mi ENE 3.5 mph - N/A   Overcast
5:42 AM 64.4 °F 62.6 °F 94% 30.11 in 10.0 mi East 5.8 mph - N/A   Overcast
5:53 AM 64.0 °F 62.1 °F 93% 30.11 in 10.0 mi ENE 4.6 mph - N/A   Overcast
6:37 AM 64.4 °F 62.6 °F 94% 30.12 in 9.0 mi NNE 3.5 mph - N/A   Overcast
6:53 AM 64.0 °F 63.0 °F 96% 30.12 in 10.0 mi NNE 3.5 mph - N/A   Overcast
7:24 AM 64.4 °F 62.6 °F 94% 30.14 in 1.5 mi NE 3.5 mph - N/A   Overcast
7:53 AM 64.0 °F 63.0 °F 96% 30.14 in 1.5 mi NNE 4.6 mph - N/A   Overcast
8:51 AM 64.4 °F 62.6 °F 94% 30.16 in 10.0 mi ENE 3.5 mph - N/A   Overcast
8:53 AM 64.9 °F 63.0 °F 93% 30.15 in 10.0 mi NE 3.5 mph - N/A   Overcast
9:53 AM 66.9 °F 64.0 °F 90% 30.17 in 10.0 mi ENE 3.5 mph - N/A   Overcast
10:44 AM 69.8 °F 64.4 °F 83% 30.15 in 10.0 mi ENE 4.6 mph - N/A   Overcast
10:53 AM 70.0 °F 64.0 °F 81% 30.14 in 10.0 mi ENE 4.6 mph - N/A   Overcast
11:53 AM 73.0 °F 64.0 °F 73% 30.11 in 10.0 mi NE 3.5 mph - N/A   Overcast
12:53 PM 75.9 °F 63.0 °F 64% 30.08 in 10.0 mi North 5.8 mph - N/A   Overcast
1:53 PM 79.0 °F 61.0 °F 54% 30.04 in 10.0 mi North 3.5 mph - N/A   Overcast
2:53 PM 78.1 °F 60.1 °F 54% 30.03 in 10.0 mi North 4.6 mph - N/A   Mostly Cloudy
3:53 PM 78.1 °F 61.0 °F 56% 30.03 in 10.0 mi Calm Calm - N/A   Mostly Cloudy
4:53 PM 77.0 °F 62.1 °F 60% 30.04 in 10.0 mi North 5.8 mph - N/A   Scattered Clouds
5:53 PM 73.9 °F 61.0 °F 64% 30.05 in 10.0 mi East 3.5 mph - N/A   Mostly Cloudy
6:53 PM 72.0 °F 62.1 °F 71% 30.06 in 10.0 mi Calm Calm - N/A   Overcast
7:53 PM 69.1 °F 63.0 °F 81% 30.05 in 10.0 mi North 3.5 mph - N/A   Mostly Cloudy
8:53 PM 69.1 °F 63.0 °F 81% 30.07 in 10.0 mi NE 5.8 mph - N/A   Mostly Cloudy
9:14 PM 69.8 °F 62.6 °F 78% 30.08 in 10.0 mi ENE 8.1 mph - N/A   Overcast
9:33 PM 69.8 °F 62.6 °F 78% 30.08 in 10.0 mi NE 6.9 mph - N/A   Mostly Cloudy
9:53 PM 69.1 °F 63.0 °F 81% 30.07 in 10.0 mi ENE 9.2 mph - N/A   Mostly Cloudy
10:53 PM 68.0 °F 62.1 °F 81% 30.09 in 10.0 mi ENE 6.9 mph - N/A   Overcast
11:53 PM 66.9 °F 62.1 °F 84% 30.07 in 10.0 mi NE 6.9 mph - N/A   Overcast